Location: Risskov
(56.1972°N, 10.2480°E)
Time: 00:18:39
(UTC+00:00)

Cosmos 2278 Rocket - Pass Details

Date: 05 July 2020
Orbit: 841 x 846 km, 71.0° (Epoch: 03 August)

Event Time Altitude Azimuth Distance (km) Brightness Sun altitude
Rises 20:58:36 0° 324° (NW) 3,420 8.3 -5.4°
Reaches altitude 10° 21:01:04 10° 325° (NW) 2,480 6.6 -5.5°
Maximum altitude 21:06:47 88° 51° (NE) 854 2.3 -6.0°
Drops below altitude 10° 21:12:27 10° 147° (SSE) 2,463 3.9 -6.4°
Enters shadow 21:12:58 - 147° (SSE) 2,658 4.1 -6.4°
